Regional Weather Roundup
Issued by NWS

Home | Current Version | Previous Version | Text Only | Print | Product List | Glossary On
Versions: 1 2 3 4 5 6 7 8 9 10 11 12 13 14 15 16 17 18 19 20 21 22 23 24 25 26 27 28 29 30 31 32 33 34 35 36 37 38 39 40 41 42 43 44 45 46 47 48 49 50
000
ASUS45 KSLC 160410
RWRUT

UTAH REGIONAL WEATHER ROUNDUP
NATIONAL WEATHER SERVICE SALT LAKE CITY UT
1000 PM MDT SAT JUN 15 2019

UTZ001>011-023>025-160500-

NORTHERN UTAH

CITY           SKY/WX    TMP DP  RH WIND       PRES   REMARKS
BRIGHAM CITY   CLEAR     73  41  31 N5        29.94R
HILL AFB       CLEAR     68  37  31 E3        29.98R
LOGAN          CLEAR     69  42  37 CALM      29.95R
OGDEN          PTCLDY    69  39  33 S8        29.95R
SALT LAKE CITY PTCLDY    75  45  34 SE8       29.94R
TOOELE VALLEY  CLEAR     64  43  45 S8        29.97R
WENDOVER       CLEAR     78  32  18 NW9       29.94S
HEBER CITY       N/A     54  45  71 CALM      30.05R
WEST JORDAN    CLEAR     66  46  49 SW7       29.98S

$$

UTZ011>015-024>027-160500-

CENTRAL/NORTHEAST UTAH

CITY           SKY/WX    TMP DP  RH WIND       PRES   REMARKS
PROVO AIRPORT  CLEAR     70  49  47 CALM      29.98
MOAB/CANYONLAN PTCLDY    72  34  24 W3        29.92R
DELTA          CLEAR     70  41  35 NE7       29.97R
PRICE          CLEAR     65  39  38 N9        30.05R
RICHFIELD      CLEAR     64  43  45 CALM      30.01R
ROOSEVELT      CLEAR     64  48  55 CALM      30.02R
VERNAL         PTCLDY    68  45  43 N7        30.00R

$$

UTZ013>016-019>022-027-160500-

SOUTHERN UTAH

CITY           SKY/WX    TMP DP  RH WIND       PRES   REMARKS
BRYCE CANYON   CLEAR     53  36  52 S5        30.19R
CEDAR CITY     PTCLDY    70  41  34 SE6       30.02R
MILFORD        CLEAR     71  40  32 CALM      29.97S
ST GEORGE      CLEAR     87  39  18 S3        29.82R
KANAB          CLEAR     70  41  35 CALM      30.02R
BLANDING         N/A     63  38  39 E9        30.12R

$$

REGIONAL REPORTS     COLORADO/ARIZONA

CITY           SKY/WX    TMP DP  RH WIND       PRES   REMARKS
CRAIG, CO      CLOUDY    60  49  66 CALM      30.07R
GRAND JUNCTION CLEAR     69  39  33 NE5       29.96R
RIFLE, CO      PTCLDY    65  53  65 W3        30.03R
MONTROSE, CO   PTCLDY    68  37  32 S9        30.06R
CORTEZ, CO     MOCLDY    58  50  75 CALM      30.08R
COLORADO CITY    N/A     68  43  40 SE3       30.01R
PAGE, AZ       MOCLDY    83  40  21 CALM      29.92R
GRAND CANYON   PTCLDY    55  39  54 CALM      30.14R
KINGMAN, AZ    CLEAR     85  36  17 SW12      29.89R
FLAGSTAFF, AZ  PTCLDY    58  37  45 CALM      30.18R

$$

REGIONAL REPORTS    NEVADA/IDAHO/WYOMING

CITY           SKY/WX    TMP DP  RH WIND       PRES   REMARKS
LAS VEGAS, NV  PTCLDY    97  40  14 SE6       29.74R HX  92
ELY, NY        MOCLDY    59  42  53 CALM      30.08R
ELKO, NV       PTCLDY    67  36  31 E3        30.00S
POCATELLO, ID  CLEAR     61  38  42 S12       29.97R
BURLEY, ID     CLEAR     66  36  32 W7        29.94S
FORT BRIDGER,  CLEAR     59  34  38 W12       30.17R
EVANSTON, WY   CLEAR     55  34  45 SW8       30.14S
ROCK SPRINGS,  PTCLDY    61  42  49 SW9       30.10R
KEMMERER, WY   CLEAR     55  36  47 W6        30.15R

$$



USA.gov is the U.S. government's official web portal to all federal, state and local government web resources and services.